AirNav   Air Wisconsin Airman Trainee
 
 675 users online  

CPF2 Bar River Airport
Bar River, Ontario, Canada

GOING TO BAR RIVER?


FAA INFORMATION EFFECTIVE 31 JANUARY 2019

The information below comes from the U.S. Federal Avaition Administration (FAA). The FAA is not the official source of data for facilities located outside the United States, and THESE RECORDS ARE LIKELY NOT COMPLETE OR CORRECT.

Location

FAA Identifier: CPF2
Lat/Long: 46-25-13.0000N / 084-05-32.0000W
46-25.216667N / 084-05.533333W
46.4202778 / -84.0922222
(estimated)
Elevation: 591 ft. / 180 m
From city: 3 miles SW of BAR RIVER,
Time zone: UTC -5 (UTC -4 during Daylight Saving Time)
Zip code: 49788

Airport Operations

Airport use: Open to the public
Activation date: 04/2005
Control tower: no
ARTCC: WINNIPEG CENTER
FSS: LONDON FIC FLIGHT SERVICE STATION
Attendance: 
Segmented circle: no

Airport Communications

WX ASOS at ANJ (12 nm W): 118.375 (906-632-8501)
WX AWOS-3PT at CIU (19 nm SW): 127.575 (906-495-7134)

Nearby radio navigation aids

VOR radial/distance  VOR name  Freq  Var
SSMr091/9.2SAULT STE MARIE VOR/DME112.2004W

Airport Services

Runway Information

Runway 11/29

Dimensions: 2850 x 50 ft. / 869 x 15 m
Surface: asphalt
RUNWAY 11  RUNWAY 29
Traffic pattern: leftleft

Airport Ownership and Management from official FAA records

Ownership: Privately-owned

Instrument Procedures

There are no published instrument procedures at CPF2.

Some nearby airports with instrument procedures:

KANJ - Sault Ste Marie Municipal Airport/Sanderson Field (12 nm W)
KCIU - Chippewa County International Airport (19 nm SW)
KDRM - Drummond Island Airport (29 nm SE)
KMCD - Mackinac Island Airport (40 nm SW)
83D - Mackinac County Airport (42 nm SW)
 
Loc | Ops | Rwys | IFR | FBO | Links
Com | Nav | Svcs | Stats | Notes
Aerial photo
No photo
 
Airport distance calculator
Flying to Bar River Airport? Find the distance to fly.

From to CPF2

Sunrise and sunset
Times for 23-Feb-2019
 Local
(UTC-5)
 Zulu
(UTC)
Morning civil twilight06:5711:57
Sunrise07:2712:27
Sunset18:1223:12
Evening civil twilight18:4323:43

Current date and time
Zulu (UTC)  24-Feb-2019 04:34:00
Local (UTC-5)  23-Feb-2019 23:34:00
 
METAR
KANJ 
12nm W 
240415Z AUTO 11013G26KT 10SM BKN026 OVC040 00/M04 A2970 RMK AO2 PK WND 11026/0413 PRESFR T00001044
CYAM 
18nm W 
240400Z 11017G27KT 15SM -FZRA -SHSN DRSN FEW026 OVC037 M01/M05 A2973 RMK CU2CU6 ICE ON INDICATOR SLP079
KCIU 
19nm SW 
240356Z AUTO 11016G22KT 7SM BKN022 OVC027 M02/M04 A2972 RMK AO2 PK WND 10026/0308 UPE24SNB10E19 PRESFR SLP092 P0000 T10221039 FZRANO
TAF
CYAM 
18nm W 
240414Z 2404/2414 11015G25KT 6SM -PL BR OVC025 TEMPO 2404/2406 11/2SM -FZRA BR OVC007 FM240600 11018G28KT 6SM -FZRA BR OVC012 TEMPO 2406/2411 11/2SM -FZRA BR OVC005 FM241100 11020G30KT 11/2SM -RA BR OVC005 PROB30 2411/2413 2SM -FZRA BR FM241300 17015G25KT 3SM -DZ BR OVC008 RMK NXT FCST BY 240800Z
NOTAMs
Click for the latest NOTAMs
NOTAMs are issued by the DoD/FAA and will open in a separate window not controlled by AirNav.

 

 
 

Would you like to see your business listed on this page?

 If your business provides an interesting product or service to pilots, flight crews, aircraft, or users of the Bar River Airport, you should consider listing it here.  To start the listing process, click on the button below
 
Add a business
 

Other Pages about Bar River Airport

Update a link
 
Copyright © AirNav, LLC. All rights reserved. Privacy Policy  Contact